Temperature
21 21 21 21 25 25 24 24 25 24 24 23 22 22 23 22 22 21 18 18 17 17 17 17 17 17 17 17 17 17 17 17 17 17 17 17 17 17 17 17 17 17 17 17 17 17 17 17 17
21 22 21 23 26 25 24 24 24 24 23 22 22 22 22 21 20 19 18 17 17 17 17 17 17 17 17 17 17 17 17 17 17 17 17 17 17 17 17 17 17 17 17 17 17 17 17 17 17
22 22 23 25 25 25 24 24 24 23 22 22 22 22 22 20 19 19 18 17 17 17 17 17 17 17 17 17 17 17 17 17 17 17 17 17 17 17 17 17 17 17 17 17 17 17 17 17 17
21 22 24 26 24 24 24 25 24 24 23 22 23 22 21 19 19 18 18 17 17 17 17 16 17 17 17 17 17 17 17 17 17 17 17 17 17 17 17 17 17 17 17 17 17 17 17 17 17
22 24 25 25 24 24 25 24 24 24 24 23 23 22 21 19 18 18 18 18 17 17 17 16 17 17 17 16 16 16 17 17 17 17 17 17 17 17 17 17 17 17 17 17 17 17 17 17 17
23 25 25 24 24 24 25 24 24 24 23 23 23 22 21 19 18 18 18 18 17 17 17 16 17 17 16 16 16 16 16 16 16 16 16 17 17 16 16 16 16 17 17 16 16 16 16 16 16
24 25 25 25 24 24 24 23 24 24 24 23 22 22 21 19 18 18 18 17 17 17 17 16 16 16 16 16 16 16 16 16 16 16 16 16 16 16 16 16 16 16 16 16 16 16 16 16 16
23 25 24 24 24 24 24 23 23 23 23 22 22 23 21 19 18 18 18 17 17 17 17 17 16 16 16 16 16 16 16 16 16 16 16 16 16 16 16 16 16 16 16 16 16 16 16 16 16
23 25 24 24 24 24 24 24 23 22 22 21 21 21 20 19 18 18 18 18 17 17 17 17 17 16 16 16 16 16 16 16 16 16 16 16 16 16 16 16 16 16 16 16 16 16 16 16 16
24 25 24 24 25 24 24 24 23 23 23 22 21 20 19 19 19 19 19 18 18 18 17 17 17 16 16 16 16 16 16 16 16 16 16 16 16 16 15 16 16 16 16 16 16 16 16 15 15
25 25 24 24 24 24 24 23 23 23 23 22 22 21 20 19 19 19 19 19 18 18 17 17 17 17 16 16 16 16 16 16 16 16 16 16 15 15 15 15 15 15 15 15 15 15 15 15 15
24 24 24 24 23 23 23 23 23 22 22 22 21 20 20 19 19 19 19 19 18 18 17 17 17 17 16 16 16 16 16 16 16 16 16 15 15 15 15 15 15 15 15 15 15 15 15 15 15
24 24 23 23 23 23 23 23 23 22 21 21 21 20 20 20 19 19 19 19 18 18 17 17 17 17 17 16 16 16 16 16 16 15 15 15 15 15 15 15 15 15 15 15 15 15 15 15 15
24 24 23 23 23 23 23 23 23 22 21 21 21 20 20 20 19 19 19 19 18 18 18 17 17 17 17 16 16 16 16 16 16 15 15 15 15 15 15 15 15 15 15 15 15 15 15 15 15
23 24 24 23 23 23 23 23 23 21 21 21 21 20 20 20 19 19 19 19 18 18 18 17 17 17 17 16 16 16 16 16 16 15 15 15 15 15 15 15 15 15 15 15 15 15 15 15 14
24 24 24 23 23 23 23 23 22 21 21 21 21 21 20 20 19 19 19 19 18 18 18 17 17 17 16 16 16 16 16 16 16 15 15 15 15 15 15 15 15 15 15 15 15 15 15 14 14
24 24 24 23 23 23 23 22 22 21 21 21 21 21 20 20 19 19 19 18 18 18 18 17 17 17 16 16 16 16 16 16 16 15 15 15 15 15 15 15 15 15 15 15 15 14 14 14 14
24 24 24 23 23 23 23 23 22 21 21 21 21 21 20 20 20 19 19 18 18 18 17 17 17 17 16 16 16 16 16 15 15 15 15 15 15 15 15 15 15 15 15 14 14 14 14 14 14
24 24 23 23 23 23 23 22 23 22 21 21 21 21 20 20 19 19 18 18 18 17 17 17 17 17 16 16 16 16 16 15 15 15 15 15 15 15 15 15 15 15 15 14 14 14 14 14 14
23 23 23 23 23 23 22 22 23 22 21 21 21 21 20 20 19 18 18 18 18 17 17 17 17 17 16 16 16 16 15 15 15 15 15 15 15 15 15 15 15 15 15 14 14 14 14 14 14
23 23 23 23 22 22 22 22 22 22 21 20 20 20 20 20 19 19 18 18 17 17 17 17 17 17 16 16 16 15 15 15 15 15 15 15 15 15 15 15 15 15 15 14 14 14 14 14 14
23 23 22 22 22 23 22 22 23 22 22 21 21 20 20 19 19 19 18 17 17 17 17 17 17 17 16 16 16 16 16 16 16 16 15 15 15 15 15 15 15 15 15 14 14 14 14 14 14
22 22 22 22 22 22 22 22 23 22 22 22 21 20 20 19 19 18 18 17 17 17 17 17 16 16 16 16 16 16 15 16 16 15 15 15 15 15 15 15 15 15 15 14 14 14 14 14 14
21 22 22 22 22 22 22 22 22 22 22 22 21 20 19 19 18 18 17 17 17 17 17 16 16 16 16 16 16 16 16 16 16 15 15 15 15 15 15 15 15 15 15 15 14 14 14 14 14
22 22 22 22 22 22 22 21 22 22 22 21 21 20 19 19 18 18 17 17 17 17 16 16 16 16 16 16 16 16 16 15 15 15 15 15 15 15 15 15 15 15 15 15 14 14 14 14 14
21 22 22 21 22 22 21 21 22 22 21 20 20 20 19 18 18 18 17 17 17 16 16 16 16 16 16 16 16 16 15 15 15 15 15 15 15 15 15 15 15 15 15 15 15 14 14 14 14
21 22 22 22 22 21 22 22 22 21 21 20 20 19 19 18 18 17 17 17 16 16 16 16 16 16 16 16 16 15 16 15 15 15 15 15 15 15 15 15 15 15 15 15 14 14 14 14 14
21 21 21 21 20 21 21 21 22 21 20 20 20 19 18 18 17 17 17 16 16 16 16 16 16 16 15 15 15 15 15 15 15 15 15 15 15 15 15 15 15 15 15 15 14 14 14 14 14
20 20 21 21 21 21 21 21 21 21 20 20 20 19 18 18 17 17 16 16 16 16 16 16 16 16 15 15 15 15 15 15 15 15 15 15 15 15 15 15 15 15 15 15 15 14 14 14 14
20 20 20 20 20 20 20 21 21 20 20 19 19 18 18 17 17 16 16 16 16 16 16 16 16 15 15 15 15 15 15 15 15 15 15 15 15 15 15 15 15 15 15 15 15 14 14 14 14
Wind_Speed
3 2 2 2 2 4 8 6 5 5 4 5 5 4 5 5 5 4 4 4 4 4 5 6 5 5 6 7 8 8 8 8 8 8 8 8 8 7 7 7 7 7 7 7 7 7 7 7 8
1 1 2 1 1 6 7 6 7 6 5 4 4 4 5 6 5 5 4 4 4 5 5 6 6 5 6 6 7 8 8 8 8 7 7 8 8 7 7 7 7 7 7 7 7 7 8 8 8
2 2 1 1 4 6 7 6 7 7 4 2 3 4 4 5 4 4 5 5 5 5 5 7 5 6 6 6 7 7 8 7 8 7 7 7 8 7 7 8 7 7 7 7 8 8 9 9 10
2 2 1 4 9 8 7 6 5 5 4 4 4 5 5 5 4 5 6 5 5 5 5 7 5 5 5 6 7 7 7 7 7 7 7 7 7 7 7 7 7 7 8 8 8 9 9 10 10
1 1 4 7 8 7 5 5 3 3 4 4 4 6 6 5 6 7 6 5 5 5 5 6 6 5 5 5 6 6 6 6 6 7 7 7 7 7 7 7 7 7 8 8 8 9 10 10 11
1 1 4 6 7 6 5 3 3 5 5 4 5 6 5 6 6 6 5 5 5 5 4 6 7 5 5 5 6 6 6 5 6 6 7 7 7 7 7 7 7 7 7 8 9 9 10 10 11
1 2 5 7 7 5 4 2 2 3 5 4 3 4 5 6 6 6 5 4 4 4 3 4 5 6 6 5 5 6 6 5 6 6 7 7 7 7 7 7 7 7 8 9 10 10 11 11 11
0 3 5 5 5 5 3 3 2 2 4 4 1 3 5 7 7 6 5 4 4 3 3 3 4 4 4 6 6 5 6 6 7 8 8 7 7 7 7 8 8 9 10 10 11 12 12 12 12
1 3 4 4 3 4 4 3 3 2 4 3 3 4 6 8 8 6 5 4 4 3 3 3 3 3 3 4 6 5 6 6 6 8 7 4 5 7 7 11 10 11 11 12 12 12 12 12 12
1 3 4 3 2 3 4 3 3 3 3 4 5 5 7 8 7 6 5 4 4 4 3 3 3 3 3 3 4 4 5 5 5 5 5 5 6 7 8 12 12 12 12 12 12 11 9 6 8
2 3 4 3 3 3 4 3 2 2 2 2 3 6 8 7 6 5 4 3 3 3 3 2 2 3 3 3 3 3 4 4 5 5 5 5 5 6 6 7 9 9 8 9 9 7 8 8 8
4 4 3 3 3 3 3 3 2 0 1 1 2 5 7 7 6 5 4 3 3 3 3 2 2 3 3 3 3 3 3 3 3 4 5 4 4 4 5 5 6 6 6 6 6 6 8 9 9
4 4 3 3 4 3 3 3 2 1 1 2 4 6 6 6 5 4 3 3 3 3 2 2 2 2 3 3 2 3 3 3 4 4 4 5 4 4 5 5 5 5 6 6 6 7 8 8 9
3 4 3 3 3 3 3 2 1 1 1 3 4 5 5 5 4 4 3 3 3 3 3 3 3 3 3 3 2 3 3 3 3 4 4 4 4 4 4 4 4 5 6 6 6 8 7 7 7
4 4 4 2 2 2 2 1 0 1 1 3 4 4 4 4 4 3 3 3 3 3 3 3 3 3 3 2 2 2 3 3 3 3 4 4 4 4 4 3 4 5 6 7 7 8 7 7 7
4 4 4 2 1 2 4 1 2 2 2 2 2 3 3 3 2 2 2 2 2 3 3 4 4 3 3 3 2 2 3 3 3 4 3 3 4 4 4 3 4 5 6 6 5 5 6 6 6
5 5 4 3 1 2 3 2 2 1 1 1 1 2 2 2 2 1 2 2 2 3 4 4 4 4 3 3 3 2 3 3 3 3 3 3 3 4 4 3 4 5 5 5 5 5 5 6 6
4 5 4 3 2 2 3 3 1 1 1 1 0 1 2 2 2 2 2 2 2 3 3 4 4 4 4 3 3 3 2 2 3 3 3 3 3 4 4 4 5 5 5 4 5 6 6 5 5
3 4 4 2 2 2 3 3 2 2 2 1 1 1 1 2 1 1 2 2 3 3 3 4 5 5 4 3 3 3 3 3 3 2 3 4 4 4 4 4 4 4 4 5 6 6 7 5 5
6 6 4 2 2 3 3 3 3 2 2 2 1 1 1 1 1 1 1 2 2 3 3 4 5 5 5 4 3 3 3 3 3 3 3 3 4 4 4 4 4 5 5 6 6 6 4 4 3
6 6 5 3 2 4 4 4 4 3 2 2 2 2 1 1 2 2 2 2 2 3 3 3 5 5 5 5 3 3 4 3 3 3 3 3 4 4 4 5 5 5 5 5 6 6 5 4 3
5 3 5 5 5 3 4 4 2 3 3 2 2 2 2 2 2 2 2 2 2 2 3 4 5 4 4 5 5 6 5 4 4 3 4 4 4 4 4 5 5 5 4 5 6 5 4 4 3
1 1 4 5 6 6 5 5 2 2 3 2 2 2 2 2 2 2 2 2 2 1 1 3 3 4 4 5 6 6 5 5 4 4 4 4 4 4 4 5 5 5 4 5 5 5 4 4 3
2 3 3 4 6 6 4 5 2 1 2 2 1 1 1 1 1 1 1 1 1 1 2 2 3 4 4 5 6 7 6 6 5 5 5 5 4 4 5 5 5 5 4 5 5 5 5 4 3
4 5 4 5 5 3 2 4 2 1 1 2 1 1 1 1 1 1 1 1 1 1 2 2 3 4 4 6 6 7 6 6 6 6 6 5 4 4 5 5 5 4 5 5 5 5 5 4 4
4 6 4 3 3 2 3 4 1 1 1 1 0 1 1 1 1 1 1 1 2 2 2 2 3 3 4 5 6 6 6 5 4 5 5 5 5 5 6 6 5 5 5 5 5 4 5 4 5
4 5 4 5 4 5 3 3 2 2 2 2 2 1 1 0 1 1 1 2 2 2 2 3 3 3 4 5 5 6 6 6 5 5 5 5 5 5 6 6 6 6 6 6 5 5 5 4 4
2 2 4 5 4 5 4 5 3 2 0 1 1 1 1 1 1 2 2 2 2 2 2 3 4 4 4 5 5 5 6 6 6 5 6 6 6 6 6 7 7 6 6 6 5 5 4 4 4
3 4 4 5 5 5 4 2 2 1 1 2 2 2 2 2 2 2 3 2 2 2 2 3 3 3 4 5 5 6 6 6 6 6 6 6 6 6 7 7 7 7 7 7 6 5 5 5 5
4 5 6 6 6 6 6 3 4 1 2 3 4 4 4 3 3 2 2 2 2 2 3 3 3 3 3 4 5 6 6 6 6 6 6 7 6 6 6 6 6 7 6 6 6 6 6 6 5
Wind_Direction
192 190 233 248 187 96 78 75 72 74 64 58 53 53 59 44 31 66 87 93 86 94 101 109 92 88 90 95 99 99 96 93 95 97 97 94 91 94 94 93 94 92 88 88 90 97 99 98 99
179 208 244 250 123 106 84 79 80 69 81 90 72 63 67 68 57 83 101 100 96 93 95 91 89 89 89 96 99 97 93 93 92 94 98 98 94 93 94 92 92 93 92 91 91 98 100 97 96
169 244 296 78 80 84 93 85 88 92 85 71 80 62 57 68 76 90 96 113 105 96 94 89 90 90 88 92 96 96 92 91 91 91 93 95 94 91 91 92 91 90 90 90 91 95 98 97 95
222 212 162 99 92 78 88 93 98 109 86 68 90 87 81 67 75 93 108 115 107 99 95 93 90 94 93 93 97 98 97 93 90 89 89 92 93 91 90 92 93 90 89 92 95 96 97 96 94
235 199 120 108 96 91 86 82 86 87 75 80 88 92 95 89 93 104 111 108 100 94 93 98 95 97 97 95 96 97 96 96 92 89 87 88 89 85 89 92 93 91 90 92 99 97 97 97 95
189 162 130 116 106 103 100 97 93 86 90 97 98 101 99 110 118 116 113 106 97 95 96 102 111 96 90 93 94 94 92 96 95 90 86 84 84 85 87 88 92 93 91 95 102 100 99 96 95
135 114 112 119 119 112 101 99 83 89 97 89 93 103 117 129 130 129 120 110 98 97 98 101 111 119 119 107 100 95 92 94 94 92 88 82 82 85 88 89 90 92 93 97 100 98 96 94 92
61 130 128 128 131 109 110 122 79 68 89 95 95 96 122 139 146 140 132 125 113 107 104 98 96 100 111 116 106 97 96 96 96 94 89 90 101 102 101 102 91 89 93 97 98 95 95 92 89
236 152 129 129 134 115 134 139 106 100 113 108 90 76 103 133 150 151 145 138 126 117 107 102 95 97 100 102 118 122 119 111 121 114 110 126 104 97 102 88 90 90 91 94 95 95 96 96 92
190 139 113 113 125 121 134 133 133 146 125 120 118 115 128 145 158 165 160 151 140 128 117 110 105 107 109 109 121 121 116 119 111 103 108 101 87 83 91 99 96 96 95 96 95 100 108 104 96
110 112 119 123 119 127 137 124 132 153 123 133 144 146 152 159 166 171 166 146 135 132 130 122 110 105 107 109 100 105 111 112 109 106 110 107 101 103 101 106 110 107 111 103 106 109 90 84 76
122 108 121 120 132 146 141 136 125 61 22 53 144 154 161 171 175 178 165 147 145 143 133 126 123 111 106 108 104 114 114 112 106 111 105 110 104 104 102 102 101 105 102 100 98 93 90 83 82
135 123 111 117 128 128 127 135 131 71 47 111 127 152 169 177 182 186 172 155 154 153 154 138 142 118 116 117 117 113 103 105 114 116 121 112 109 108 111 106 104 105 108 111 102 94 89 83 78
129 136 131 130 140 147 146 142 171 50 99 140 139 152 168 177 187 183 176 172 174 176 163 152 154 143 148 141 131 106 101 111 113 117 122 116 111 111 108 109 110 105 106 104 105 100 94 88 81
153 155 151 139 167 163 176 138 5 35 135 142 147 148 161 175 186 198 192 196 191 183 174 159 165 163 161 142 123 120 124 123 116 116 124 117 112 111 114 114 116 113 115 115 106 100 101 96 91
180 193 190 150 200 202 230 218 77 87 142 137 147 148 159 168 190 198 190 198 184 181 178 168 172 175 168 155 156 146 135 129 125 123 123 128 126 118 115 122 117 121 123 120 113 109 105 99 93
205 212 202 169 155 210 223 234 106 105 171 163 162 169 176 177 199 203 196 191 180 181 184 175 172 174 167 161 156 148 139 136 132 128 127 132 125 128 130 130 132 129 129 129 126 118 113 106 99
208 216 208 205 147 194 212 223 194 173 210 255 216 176 183 193 214 213 194 183 179 181 193 181 175 179 163 165 165 157 160 150 140 140 142 140 142 146 137 140 145 137 138 140 134 123 114 108 105
235 231 225 207 165 218 222 233 233 212 222 243 221 192 180 205 212 194 173 172 175 180 192 185 183 179 171 170 184 177 177 175 163 151 150 161 156 150 140 146 143 146 150 151 146 134 127 121 119
226 233 231 189 160 224 237 254 238 210 218 233 240 217 189 192 196 183 172 173 185 192 199 191 192 187 181 184 193 187 182 177 169 164 158 166 159 148 148 156 153 156 154 156 154 149 142 138 148
226 241 241 231 207 216 249 244 209 197 206 209 230 241 223 228 225 195 184 176 198 212 213 208 198 194 192 187 186 178 165 164 167 173 167 166 164 159 161 161 161 164 168 165 170 169 164 162 167
231 245 244 229 234 237 251 270 201 205 210 216 226 233 236 233 236 216 194 200 221 227 216 211 200 199 194 192 193 186 185 186 187 180 171 169 164 166 172 173 174 177 179 176 182 182 182 185 180
270 238 224 231 245 257 241 259 227 177 232 248 236 224 227 233 233 221 213 225 235 215 204 213 198 196 190 196 195 197 193 193 180 173 169 169 161 169 174 174 176 182 185 185 186 187 196 199 209
178 172 179 215 241 248 249 251 253 190 273 284 241 213 209 215 213 210 183 195 212 195 190 201 198 193 188 193 199 199 196 195 187 180 174 173 170 178 176 175 178 182 186 185 189 191 196 204 207
217 229 225 217 218 234 169 242 259 46 353 319 303 192 188 180 176 168 160 173 191 193 196 202 203 198 194 199 202 202 204 205 202 194 186 184 183 190 187 185 185 183 185 188 191 197 198 204 210
221 242 251 264 256 247 204 241 182 58 21 355 346 124 142 150 167 212 214 217 211 204 207 211 216 214 205 206 209 205 200 203 206 206 197 193 195 197 193 188 183 183 188 190 192 200 200 206 210
210 223 268 274 274 268 237 225 195 116 60 42 43 53 58 321 291 264 244 238 227 212 212 216 219 225 217 212 210 208 203 202 201 204 203 199 193 192 193 188 185 187 189 192 192 204 200 204 210
260 212 222 238 255 256 246 242 224 166 45 46 35 346 305 303 306 300 280 254 242 230 226 225 224 226 221 215 209 209 208 202 202 202 203 201 194 189 190 194 191 188 193 194 194 200 202 199 191
188 202 229 237 254 264 261 219 95 129 2 329 327 314 301 297 295 298 299 284 257 236 230 227 230 228 222 215 210 206 201 201 197 199 200 205 197 190 190 196 198 193 190 191 187 197 196 204 195
234 232 231 241 239 247 268 264 124 140 345 333 326 319 304 297 288 289 299 294 279 260 249 238 236 226 222 212 210 209 197 198 198 197 198 200 194 191 192 193 197 193 194 196 192 196 197 203 201
Height
1518 1517 1518 1519 1517 1517 1523 1524 1521 1523 1523 1527 1527 1527 1527 1529 1530 1537 1538 1535 1536 1536 1535 1535 1534 1534 1534 1534 1535 1535 1535 1535 1535 1535 1535 1535 1535 1536 1536 1536 1536 1536 1536 1536 1536 1537 1537 1537 1537
1518 1518 1520 1519 1515 1523 1528 1523 1524 1525 1527 1529 1529 1529 1529 1532 1534 1536 1537 1536 1537 1537 1536 1536 1535 1535 1535 1535 1536 1536 1536 1536 1536 1536 1536 1536 1536 1536 1536 1537 1537 1537 1537 1537 1537 1538 1538 1538 1538
1519 1519 1521 1517 1518 1523 1527 1524 1525 1528 1529 1529 1530 1531 1532 1535 1536 1537 1538 1537 1538 1538 1537 1536 1536 1536 1536 1536 1536 1536 1537 1537 1537 1537 1537 1537 1537 1537 1537 1537 1538 1538 1538 1538 1538 1538 1539 1539 1539
1520 1522 1521 1519 1525 1524 1524 1525 1527 1528 1530 1530 1530 1532 1535 1537 1538 1539 1538 1538 1539 1539 1538 1537 1536 1537 1537 1537 1537 1537 1537 1538 1538 1538 1538 1538 1538 1538 1538 1538 1538 1539 1538 1539 1539 1539 1540 1540 1540
1521 1521 1519 1523 1526 1525 1525 1527 1528 1527 1529 1531 1531 1533 1536 1539 1539 1539 1539 1540 1540 1540 1539 1539 1538 1538 1538 1538 1538 1538 1538 1539 1539 1539 1539 1539 1539 1539 1539 1539 1539 1539 1540 1540 1540 1541 1541 1541 1541
1523 1519 1521 1527 1528 1527 1527 1529 1529 1529 1531 1532 1533 1534 1538 1540 1540 1540 1540 1541 1541 1540 1540 1540 1539 1539 1539 1539 1539 1539 1539 1539 1540 1540 1540 1540 1540 1540 1540 1540 1540 1541 1541 1541 1541 1542 1542 1542 1542
1523 1520 1523 1525 1528 1528 1529 1530 1530 1530 1531 1533 1534 1535 1538 1540 1541 1541 1541 1541 1541 1541 1541 1541 1541 1540 1540 1540 1540 1540 1540 1540 1541 1541 1541 1541 1541 1541 1541 1541 1541 1542 1542 1542 1542 1543 1543 1543 1543
1523 1522 1524 1525 1528 1529 1530 1531 1532 1532 1533 1535 1536 1535 1538 1541 1541 1541 1542 1542 1542 1542 1542 1542 1542 1542 1542 1542 1541 1541 1541 1541 1541 1542 1542 1542 1542 1542 1543 1543 1542 1543 1543 1543 1544 1544 1544 1544 1544
1524 1523 1526 1526 1527 1528 1530 1531 1533 1534 1534 1536 1537 1537 1539 1540 1541 1542 1543 1543 1543 1543 1543 1543 1543 1543 1543 1543 1542 1542 1542 1542 1542 1543 1543 1544 1545 1545 1544 1544 1544 1544 1544 1545 1545 1546 1546 1546 1546
1523 1523 1526 1526 1526 1528 1530 1531 1533 1533 1534 1536 1537 1539 1539 1540 1541 1542 1543 1543 1544 1544 1544 1544 1544 1544 1544 1543 1543 1543 1544 1543 1544 1544 1544 1545 1546 1546 1546 1545 1545 1546 1546 1546 1547 1547 1547 1548 1548
1523 1524 1526 1527 1529 1530 1530 1532 1533 1533 1534 1536 1537 1539 1540 1541 1542 1543 1543 1544 1544 1544 1544 1544 1544 1544 1544 1544 1544 1544 1544 1544 1545 1545 1545 1546 1546 1547 1547 1547 1548 1548 1548 1549 1548 1549 1550 1550 1549
1525 1526 1527 1528 1530 1531 1531 1532 1534 1534 1536 1537 1537 1538 1540 1541 1542 1543 1543 1544 1544 1545 1545 1545 1545 1545 1545 1545 1545 1545 1545 1545 1546 1546 1547 1547 1547 1548 1548 1549 1549 1550 1550 1550 1551 1551 1551 1551 1551
1525 1527 1529 1530 1531 1532 1532 1533 1534 1535 1536 1537 1538 1538 1540 1541 1542 1543 1543 1544 1544 1544 1545 1545 1545 1545 1545 1545 1545 1546 1546 1546 1547 1547 1548 1548 1549 1549 1549 1550 1550 1551 1551 1552 1552 1552 1552 1552 1552
1527 1528 1529 1530 1531 1532 1532 1533 1534 1535 1536 1537 1538 1538 1539 1541 1541 1542 1543 1544 1544 1544 1545 1545 1545 1545 1546 1546 1546 1547 1547 1547 1548 1548 1548 1549 1550 1550 1550 1551 1551 1552 1552 1552 1553 1553 1553 1553 1554
1528 1528 1529 1530 1530 1531 1532 1533 1534 1536 1536 1537 1538 1538 1539 1540 1541 1542 1543 1543 1544 1544 1545 1545 1545 1545 1546 1546 1546 1547 1547 1548 1548 1549 1549 1550 1550 1551 1551 1552 1552 1552 1553 1554 1554 1554 1554 1555 1555
1526 1526 1529 1530 1530 1531 1533 1535 1535 1536 1536 1536 1537 1538 1539 1540 1540 1541 1542 1543 1543 1544 1544 1544 1545 1545 1546 1546 1546 1547 1548 1548 1549 1549 1550 1550 1551 1551 1551 1552 1552 1553 1554 1554 1555 1555 1556 1556 1557
1525 1527 1528 1529 1530 1530 1530 1533 1534 1536 1536 1535 1536 1537 1538 1539 1540 1540 1541 1541 1542 1543 1543 1544 1544 1545 1545 1546 1547 1547 1548 1549 1549 1550 1550 1550 1551 1551 1552 1552 1553 1554 1554 1555 1556 1557 1557 1558 1558
1527 1525 1527 1528 1528 1529 1530 1531 1533 1535 1535 1535 1535 1536 1537 1538 1539 1539 1540 1540 1541 1541 1542 1543 1544 1544 1545 1545 1546 1547 1548 1549 1549 1550 1550 1551 1551 1551 1552 1553 1553 1554 1555 1556 1557 1557 1558 1558 1559
1524 1525 1527 1527 1528 1530 1530 1530 1530 1533 1533 1534 1534 1535 1536 1537 1538 1538 1538 1539 1540 1540 1541 1542 1543 1544 1544 1545 1546 1547 1547 1548 1549 1550 1550 1550 1551 1551 1552 1553 1554 1554 1555 1556 1558 1558 1559 1559 1560
1525 1526 1526 1527 1528 1529 1529 1529 1528 1531 1532 1533 1533 1534 1534 1535 1536 1537 1537 1538 1538 1539 1540 1541 1542 1542 1543 1544 1545 1546 1547 1548 1549 1549 1550 1550 1551 1552 1552 1553 1554 1555 1556 1557 1558 1558 1559 1560 1561
1525 1525 1525 1528 1528 1527 1529 1528 1527 1528 1530 1532 1532 1533 1533 1534 1535 1536 1536 1537 1537 1538 1538 1539 1540 1541 1542 1543 1544 1545 1546 1547 1548 1549 1549 1550 1550 1551 1552 1553 1554 1555 1556 1557 1558 1559 1559 1560 1561
1526 1524 1526 1528 1529 1527 1529 1530 1524 1524 1527 1529 1530 1531 1532 1533 1534 1534 1535 1536 1536 1537 1537 1538 1539 1540 1541 1541 1542 1543 1544 1545 1547 1548 1549 1549 1550 1551 1552 1553 1554 1555 1556 1557 1558 1558 1559 1560 1561
1524 1525 1525 1526 1526 1527 1527 1529 1523 1523 1525 1525 1527 1529 1531 1532 1533 1533 1534 1534 1535 1535 1536 1537 1538 1538 1539 1539 1540 1542 1543 1544 1546 1546 1548 1549 1550 1550 1551 1552 1553 1554 1555 1556 1557 1558 1559 1560 1561
1526 1526 1526 1525 1525 1532 1526 1528 1526 1520 1523 1523 1525 1528 1529 1531 1532 1532 1533 1533 1534 1534 1535 1535 1536 1537 1537 1538 1539 1540 1542 1543 1544 1545 1546 1547 1549 1550 1550 1551 1552 1553 1555 1556 1556 1557 1558 1559 1560
1525 1526 1530 1530 1531 1528 1525 1528 1525 1520 1522 1524 1525 1526 1528 1530 1530 1531 1532 1532 1533 1533 1533 1534 1535 1535 1536 1537 1538 1539 1540 1542 1543 1544 1545 1546 1547 1548 1549 1550 1552 1553 1554 1555 1555 1556 1557 1558 1559
1524 1523 1530 1534 1530 1526 1525 1526 1520 1521 1523 1524 1525 1526 1528 1529 1530 1530 1531 1531 1532 1532 1532 1533 1533 1534 1534 1535 1536 1537 1539 1540 1541 1542 1543 1544 1546 1547 1548 1549 1550 1551 1552 1553 1554 1555 1556 1557 1558
1524 1524 1522 1525 1526 1530 1523 1520 1519 1521 1522 1524 1525 1526 1527 1528 1529 1529 1530 1530 1530 1530 1530 1531 1531 1532 1533 1533 1535 1536 1537 1538 1539 1540 1541 1543 1544 1545 1546 1548 1549 1550 1551 1552 1553 1554 1555 1556 1557
1524 1523 1525 1527 1533 1532 1526 1522 1520 1520 1522 1523 1524 1525 1526 1527 1528 1528 1528 1528 1528 1529 1529 1529 1530 1530 1531 1532 1533 1534 1535 1536 1537 1538 1539 1541 1542 1543 1544 1546 1547 1548 1549 1551 1552 1553 1554 1555 1556
1527 1527 1525 1524 1525 1529 1528 1523 1516 1519 1521 1522 1523 1524 1525 1526 1526 1526 1526 1527 1527 1527 1527 1527 1527 1528 1529 1529 1530 1532 1533 1534 1535 1536 1537 1538 1540 1541 1543 1544 1546 1547 1548 1549 1550 1551 1552 1554 1554
1525 1524 1525 1528 1527 1526 1526 1524 1517 1519 1521 1522 1523 1524 1524 1525 1525 1525 1525 1525 1525 1525 1525 1525 1525 1526 1526 1527 1528 1529 1530 1532 1533 1534 1535 1537 1538 1540 1541 1542 1544 1545 1546 1548 1549 1550 1551 1552 1553